Location: Coupvray
(48.8929°N, 2.7967°E)
Time: 13:58:54
(UTC+00:00)

Altair 2 - Pass Details

Date: 18 January 2021
Orbit: 837 x 949 km, 90.2° (Epoch: 28 February)

Event Time Altitude Azimuth Distance (km) Brightness Sun altitude
Rises 06:01:07 0° 4° (N) 3,430 10.8 -15.0°
Reaches altitude 10° 06:03:32 10° 8° (N) 2,501 10.1 -14.6°
Maximum altitude 06:09:05 60° 89° (E) 992 8.4 -13.7°
Drops below altitude 10° 06:14:45 10° 169° (S) 2,553 10.6 -12.8°
Sets 06:17:14 0° 173° (S) 3,506 11.3 -12.4°
